COSMOS 2251 DEB, 34476

Orbit data source: Space-Track

COSMOS 2251 DEB, 34476 is space debris in LEO originally from a launch on Wed, 16 Jun 1993 UTC launched from the Plesetsk Missile And Space Complex (PKMTR). The debris from Iridium 33, an American commercial communications satellite, has been tracked extensively since its accidental collision with the defunct Russian satellite Cosmos 2251 in 2009. This event, occurring at high speed in low Earth orbit (LEO), generated thousands of pieces of space debris, significantly increasing the risk of further collisions. The Iridium 33 debris cloud has impacted space traffic management and orbital debris mitigation strategies, making it a subject of ongoing study in space situational awareness.

Loading next visibility...
Identifier
34476, 1993-036TV
Orbit
LEO
Country
Flag of CISCIS
Related business
Manufacturer
Unknown
Mission
Spacecraft
Bus & Motor
Unknown
Mass
Unknown
Launch date (UTC)
1993-06-16 (33 years ago)
Launch vehicle
Unknown
Launch site
Plesetsk Missile And Space Complex (PKMTR)
Object type
Payload
Rocket body
Debris
Shape & HBR
Unknown shape, 0.1 m
Radar Cross Section
Small (<0.1 m²)

Expand to show TLE details & history
Last TLE update: 14 hours ago

TLE from 14 hours ago
0 COSMOS 2251 DEB
1 34476U 93036TV  26207.99710739  .00003037  00000-0  19270-2 0  9991
2 34476  74.0068  60.4695 0304764 230.0047 127.3963 13.83883431867667
Epoch: 2026-07-26T23:55Z
TLE epoch observation values (Epoch: 2026-07-26T23:55:50.078Z)
Latitude
-0.00007°
Longitude
116.82381°
Altitude
1,092.529 km
Speed
7.236 km/s
True Right ascension
04h 01m 52s
True Declination
0° 00' 00"
Sunlit
Object was in daylight at epoch
Visualization orbit readout
Latitude
Unknown
Longitude
Unknown
Altitude
Unknown
Speed
Unknown
Apparent Right ascension
Unknown
Apparent Declination
Unknown
Sunlit
N/A
Visualization observer readout
Local Sidereal Time
03:07:22
Azimuth
Unknown
Elevation
Unknown
Doppler factor
Unknown
Orbital elements
Apogee altitude
1,171.095 km
Perigee altitude
724.557 km
Semi-major axis
7,325.963 km
Eccentricity
0.03048
Inclination
74.0068°
RAAN
60.4695°
Arg. of periapsis
230.0047°
True anomaly
130.107°
Mean anomaly
127.3963°
Eccentric anomaly
128.75796°
Mean motion
3.46135 °/min
Orbital period
104.01 mins
BSTAR
0.001927
Loading maneuver chart data...
Computing Atmospheric mass density...

Documentation

Showing up to 5 results
|